Location: Budapest
(47.4979°N, 19.0402°E)
Time: 09:16:02
(UTC+02:00)

Envisat - Pass Details

Date: 21 May 2024
Orbit: 762 x 764 km, 98.3° (Epoch: 13 June)

Event Time Altitude Azimuth Distance (km) Brightness Sun altitude
Rises 03:07:22 0° 24° (NNE) 3,238 8.0 -14.6°
Reaches altitude 10° 03:10:05 10° 38° (NE) 2,307 6.9 -14.4°
Maximum altitude 03:14:15 25° 93° (E) 1,508 4.9 -14.0°
Drops below altitude 10° 03:18:22 10° 148° (SSE) 2,292 5.3 -13.5°
Sets 03:21:03 0° 161° (SSE) 3,212 5.9 -13.3°
Enters shadow 03:21:10 - 162° (SSE) 3,256 5.9 -13.2°
